Regional Weather Roundup
Issued by NWS

Home | Current Version | Previous Version | Graphics & Text | Print | Product List | Glossary On
Versions: 1 2 3 4 5 6 7 8 9 10 11 12 13 14 15 16 17 18 19 20 21 22 23 24 25 26 27 28 29 30 31 32 33 34 35 36 37 38 39 40 41 42 43 44 45 46 47 48 49 50
000
ASUS43 KLOT 241106
RWRIL

ILLINOIS REGIONAL WEATHER ROUNDUP
NATIONAL WEATHER SERVICE CHICAGO/ROMEOVILLE IL
600 AM CDT FRI OCT 24 2014

NOTE: "FAIR" INDICATES FEW OR NO CLOUDS BELOW 12,000 FEET WITH NO
SIGNIFICANT WEATHER AND/OR OBSTRUCTIONS TO VISIBILITY.

* THESE STATIONS ARE NOT UNDER NWS QUALITY CONTROL. THEY ALSO MAY NOT
  REPORT WEATHER SUCH AS PRECIPITATION OR FOG.

ILZ001-002-007-009-015-016-024-241200-
NORTHWEST ILLINOIS

CITY           SKY/WX    TMP DP  RH WIND       PRES   REMARKS
MOLINE         CLOUDY    49  48  97 CALM      30.06S FOG
STERLING*      CLOUDY    37  36  93 CALM      30.07R VSB 1/4
SAVANNA*       CLOUDY    47  46  94 CALM      30.05F FOG
$$

ILZ003-004-008-010-011-017-018-241200-
NORTH CENTRAL ILLINOIS

CITY           SKY/WX    TMP DP  RH WIND       PRES   REMARKS
ROCKFORD       FOG       46  45  96 CALM      30.08R VSB 3/4
FREEPORT*      CLOUDY    50  48  93 NW5       30.07S
ROCHELLE*      CLOUDY    42  42 100 CALM      30.07R FOG
DE KALB*       CLOUDY    47  45  93 W3        30.06S
PERU*          FOG       45  43  95 CALM      30.07S VSB 1
$$

ILZ005-006-012>014-019>023-241200-
NORTHEAST ILLINOIS

CITY           SKY/WX    TMP DP  RH WIND       PRES   REMARKS
CHICAGO-OHARE  CLOUDY    53  45  74 SW3       30.05S
CHICAGO-MIDWAY CLOUDY    54  46  74 SW6       30.05S
AURORA         CLOUDY    48  44  86 CALM      30.05F FOG
LANSING*       PTCLDY    49  45  84 SW3       30.06S
JOLIET*        CLOUDY    47  46  95 CALM      30.06S
WAUKEGAN       CLOUDY    47  44  90 CALM      30.04F
DUPAGE AIRPORT CLOUDY    52  45  77 SW5       30.05S
KANKAKEE*      CLEAR     47  45  93 S5        30.07F
WHEELING       CLOUDY    53  45  74 CALM      30.06F
MORRIS*        CLOUDY    49  48  97 CALM      30.05S
ROMEOVILLE*    CLOUDY    50  46  84 CALM      30.06S
NORTHERLY ISL    N/A     55  44  66 W3          N/A
$$

LMZ740>746-241200-
SOUTHERN LAKE MICHIGAN

STATION/POSITION SKY/WX   TEMP    WIND        PRES    VSBY  WAVE
                          AIR SEA DIR/SP/G                  HT/PER
                          (F)     (DEG/KT/KT) (MB)    (MI)  (FT/S)
SOUTHERN BUOY              54 54  270/  8/ 10 1017.4F         1/ 3
WAUKEGAN HARBOR            51     280/  4/  7   N/A
HARRISON CRIB              54     210/  7/  8   N/A
BURNHAM HARBOR             54     190/  3/  5   N/A
CALUMET HARBOR             54     210/  3/  5 1016.5S
MICHIGAN CITY              53     160/  6/  7   N/A
$$

ILZ025>027-034>036-040-047-049-050-058-095>099-241200-
WEST-CENTRAL ILLINOIS

CITY           SKY/WX    TMP DP  RH WIND       PRES   REMARKS
QUINCY         FOG       55  54  96 W3        30.07S VSB 1/4
GALESBURG*     FOG       46  46  99 CALM      30.07R VSB 1
MACOMB*        FOG       47  47 100 CALM      30.08S VSB<1/4
JACKSONVILLE*  CLOUDY    56  53  89 SW5       30.08S
PITTSFIELD*    FOG       56  54  93 CALM      30.09S VSB 1/2
$$

ILZ028>032-037-038-041>044-048-051>054-059>061-241200-
CENTRAL ILLINOIS

CITY           SKY/WX    TMP DP  RH WIND       PRES   REMARKS
PONTIAC        MOCLDY    42  42  98 CALM      30.08F FOG
BLOOMINGTON    PTCLDY    49  46  89 SW5       30.08S
DECATUR        PTCLDY    48  45  89 SW6       30.09R
PEORIA         CLEAR     47  44  90 CALM      30.06F FOG
LACON*         CLEAR     43  41  95 CALM      30.05S FOG
LINCOLN*       CLEAR     46  44  93 CALM      30.06S
SPRINGFIELD    CLOUDY    53  51  93 CALM      30.08S FOG
TAYLORVILLE    CLOUDY    52  46  82 W8        30.08S
$$

ILZ033-039-045-046-055>057-062-063-241200-
EAST-CENTRAL ILLINOIS

CITY           SKY/WX    TMP DP  RH WIND       PRES   REMARKS
CHAMPAIGN      MOCLDY    46  44  93 S5        30.09R
DANVILLE*      CLOUDY    48  47  95 CALM      30.07R
RANTOUL*       CLOUDY    49  47  93 S3        30.08S FOG
MATTOON        CLOUDY    52  45  77 S5        30.09R
PARIS*         CLOUDY    49  47  94 CALM      30.11R
$$

ILZ079-100>102-241200-
SOUTHWEST ILLINOIS

CITY           SKY/WX    TMP DP  RH WIND       PRES   REMARKS
ALTON          MOCLDY    50  47  90 CALM      30.09F
BELLEVILLE     PTCLDY    50  49  99 CALM      30.09S
CAHOKIA*       MOCLDY    50  48  93 CALM      30.09F
SPARTA*        CLOUDY    52  47  84 CALM      30.11S
$$

ILZ064>066-069>071-074>076-080>082-084>086-088>090-092>094-241200-
SOUTH-CENTRAL ILLINOIS

CITY           SKY/WX    TMP DP  RH WIND       PRES   REMARKS
CARBONDALE     CLOUDY    50  47  89 SE3       30.11S
CAIRO*         CLOUDY    51  48  92 CALM      30.13S
EFFINGHAM*     MOCLDY    49  43  80 CALM      30.10S
MARION         CLOUDY    50  46  87 S5        30.12S
MT. VERNON     PTCLDY    48  43  81 CALM      30.11F
CENTRALIA*     MOCLDY    51  46  82 CALM      30.10S
SALEM*         CLOUDY    52  50  90 CALM      30.11R
METROPOLIS*    CLOUDY    42  42 100 CALM      30.13S FOG
$$

ILZ067-068-072-073-078-083-087-091-241200-
SOUTHEAST ILLINOIS

CITY           SKY/WX    TMP DP  RH WIND       PRES   REMARKS
LAWRENCEVILLE  CLOUDY    51  48  89 S3        30.12R
FLORA*         PTCLDY    50  47  90 CALM      30.11S
FAIRFIELD*     CLOUDY    50  47  87 S3        30.11S
HARRISBURG*    CLOUDY    48  47  97 CALM      30.14R
ROBINSON*      CLOUDY    52  48  86 CALM      30.12S
CARMI*         CLOUDY    50  49  96 CALM      30.12R
$$

ABBREVIATIONS USED IN REMARKS
   TC - TEMPERATURE IN CELSIUS
  WCI - WIND CHILL INDEX
   HX - HEAT INDEX
  VSB - VISIBILITY
$$




USA.gov is the U.S. government's official web portal to all federal, state and local government web resources and services.